Regional Weather Roundup
Issued by NWS

Home | Current Version | Previous Version | Text Only | Print | Product List | Glossary On
Versions: 1 2 3 4 5 6 7 8 9 10 11 12 13 14 15 16 17 18 19 20 21 22 23 24 25 26 27 28 29 30 31 32 33 34 35 36 37 38 39 40 41 42 43 44 45 46 47 48 49 50
000
ASUS43 KTOP 020508
RWRKS

WEATHER ROUNDUP FOR KANSAS
NATIONAL WEATHER SERVICE GOODLAND KS
1200 AM CDT TUE SEP 02 2014

NOTE:  "FAIR" INDICATES FEW OR NO CLOUDS BELOW 12,000 FEET WITH NO
SIGNIFICANT WEATHER AND/OR OBSTRUCTIONS TO VISIBILITY.

KSZ001>006-013>018-027>032-041>047-020600-
NORTHWEST KANSAS

CITY           SKY/WX    TMP DP  RH WIND       PRES   REMARKS
GOODLAND       CLEAR     63  55  75 S13       30.01S
HAYS           PTCLDY    64  57  77 CALM      29.95R
HILL CITY      PTCLDY    63  58  83 CALM      29.96R
RUSSELL        CLEAR     66  63  90 SE6       29.93R
$$

KSZ061>065-074>080-084>089-020600-
SOUTHWEST KANSAS

CITY           SKY/WX    TMP DP  RH WIND       PRES   REMARKS
DODGE CITY     CLEAR     66  63  90 E7        29.97R
ELKHART          N/A     68  61  78 E7          N/A
GARDEN CITY    CLEAR     66  62  87 E8        29.96S
GREAT BEND     CLEAR     68  63  83 E3        29.94R
LIBERAL        CLEAR     70  61  73 E14G23    29.95S
PRATT          PTCLDY    70  64  83 E5        29.94R
$$

KSZ066>073-081>083-090>101-020600-
SOUTHEAST KANSAS

CITY           SKY/WX    TMP DP  RH WIND       PRES   REMARKS
CHANUTE        LGT RAIN  73  71  93 SE10      29.88F
COFFEYVILLE    CLOUDY    73  72  96 E8        29.86F
HUTCHINSON     CLEAR     71  67  87 E6        29.91R
MEDICINE LODGE   N/A     73  68  84 NE7       29.89R
NEWTON         CLEAR     70  63  78 E5        29.93S
PARSONS        CLOUDY    72  68  87 N7        29.92R THUNDER
WICHITA INTL   MOCLDY    74  68  81 NE8       29.88S
WICHITA JABRA  MOCLDY    71  68  90 NE6       29.88S
WICHITA MCCONL PTCLDY    72  72 100 NE7       29.89S
WINFIELD       CLOUDY    71  68  90 NE10      29.88R THUNDER
$$

KSZ007>012-019>026-033>040-048>060-102>105-020600-
NORTHEAST KANSAS

CITY           SKY/WX    TMP DP  RH WIND       PRES   REMARKS
CONCORDIA      CLEAR     63  60  90 N3        29.94R
EMPORIA        CLOUDY    70  68  93 E7        29.90S
LAWRENCE       CLOUDY   N/A N/A N/A CALM      29.89F
MANHATTAN      MOCLDY    69  67  93 CALM      29.88F
OLATHE IND     CLOUDY    70  69  97 SE5       29.91S
OLATHE EXE     CLOUDY    69  69 100 SE3       29.90R
SALINA         CLEAR     71  66  84 S5        29.90S
TOPEKA BILLARD CLOUDY    72  71  97 SE5       29.88F
TOPEKA FORBES  CLOUDY    70  69  97 MISG      29.89F
$$


USA.gov is the U.S. government's official web portal to all federal, state and local government web resources and services.